Flag for India Weather past 2 weeks in Anantnag, Jammu and Kashmir, India

Now
91 °F

Scattered clouds.


Feels Like: 114 °F
Forecast: 53 / 94 °F
Wind: 14 mph from Southeast

Location: Islamabad Airport

Current Time: Jul 23, 2014 at 1:58:39 PM

Latest Report: Jul 23, 2014 at 11:30 AM


Visibility: 2 mi

Pressure: 29.56 "Hg

Humidity: 75%

Dew point: 82 °F

Location of AnantnagLocation

Historic Weather in Anantnag — Graph

°F

Anantnag temperature yesterday

Maximum temperature yesterday: 100 °F (at 3:30 PM)
Minimum temperature yesterday: 86 °F (at 3:30 AM)
Average temperature yesterday: 92 °F

Past Weeks' High & Low Weather Summary

 TemperatureHumidityPressure
High106 °F (Jul 8, 4:30 PM)100% (Jul 19, 7:30 AM)29.65 "Hg (Jul 19, 7:30 AM)
Low68 °F (Jul 19, 6:30 AM)28% (Jul 8, 2:30 PM)29.42 "Hg (Jul 15, 5:30 PM)
Average90 °F59%29.53 "Hg
* Reported Jul 8 11:30 AM — Jul 23 11:30 AM, Anantnag, Weather by CustomWeather, © 2014

Note: Actual official high and low records may vary slightly from our data, if they occured in-between our weather recording intervals... More about our weather records

Advertising

Anantnag weather history for previous 24 hours

 ConditionsComfort  
Time TempWeatherWind HumidityBarometerVisibility
11:30 AM
Jul 23
91 °FScattered clouds.14 mph75%29.56 "Hg2 mi
10:30 AM91 °FScattered clouds.14 mph75%29.56 "Hg1 mi
9:30 AM88 °FBroken clouds.16 mph79%29.56 "Hg1 mi
8:30 AM88 °FScattered clouds.14 mph79%29.56 "Hg1 mi
7:30 AM86 °FBroken clouds.12 mph79%29.56 "Hg2 mi
5:30 AM86 °FPartly cloudy.12 mph75%29.53 "Hg2 mi
10:30 PM
Jul 22
91 °FHaze.9 mph67%29.53 "Hg2 mi
9:30 PM91 °FPassing clouds.9 mph67%29.53 "Hg2 mi
8:30 PM93 °FPassing clouds.9 mph63%29.50 "Hg2 mi
7:30 PM95 °FScattered clouds.9 mph60%29.50 "Hg2 mi
6:30 PM97 °FScattered clouds.12 mph53%29.50 "Hg2 mi
5:30 PM97 °FScattered clouds.14 mph53%29.50 "Hg2 mi
4:30 PM99 °FScattered clouds.14 mph50%29.50 "Hg2 mi
3:30 PM100 °FScattered clouds.12 mph50%29.50 "Hg2 mi
2:30 PM99 °FScattered clouds.7 mph53%29.53 "Hg2 mi
1:30 PM99 °FScattered clouds.14 mph50%29.56 "Hg2 mi
Weather by CustomWeather, © 2014

See weather overviewHow to use our weather pages